www.pogodaiklimat.ru

Погода и климат >> Архив погоды >> Украина >> Сумы


АРХИВ ПОГОДЫ в Сумах

Время (UTC), дата Ветер
(напр.,м/с)
 
Видим.   Явления Облачность Т
(С)
Тd
(С)
f
(%)
Тe
(С)
Тes
(С)
Комфортность P
(гПа)
Po
(гПа)
Тmin
(С)
Tmax
(С)
R
(мм)
R24
(мм)
S
(см)
18 13.09 Ю 2 10 км 4/0
[Ci fib]
+20.3 +5.0 37 +22 +22 комфорт 1020.2 998.9 +28.7
21 13.09 З 3 10 км 4/0
[Ac trans]
+18.0 +4.6 41 +18 +18 тепло 1019.7 998.2
00 14.09 З 2 10 км 3/0
[Ac trans]
+15.3 +8.8 65 +15 +15 тепло 1019.8 998.1
03 14.09 ЮЗ 2 10 км 8/0
[Ac trans Ci fib]
+12.9 +8.7 76 +12 +12 по сезону 1019.3 997.5
06 14.09 З 2 10 км 9/0
[Ac trans]
+17.2 +9.8 62 +18 +19 тепло 1019.0 997.5 +12.6
09 14.09 СЗ 4 10 км 9/0
[Ac trans]
+18.2 +10.1 59 +18 +21 тепло 1019.4 998.0
12 14.09 З 5 10 км 10/3 600 м
[Cb calv Ac und]
+18.8 +7.9 49 +19 +20 тепло 1019.7 998.3
15 14.09 СЗ 4 10 км 6/0
[Ac trans]
+19.0 +3.5 36 +19 +19 тепло 1019.8 998.4
18 14.09 СЗ 2 10 км ясно +13.6 +5.0 56 +13 +13 по сезону 1022.4 1000.5 +20.3
21 14.09 штиль 0 10 км ясно +7.6 +1.7 66 +7 +7 прохладно 1023.6 1001.2
00 15.09 З 1 10 км ясно +6.9 +2.5 74 +6 +6 прохладно 1023.4 1001.0
03 15.09 ЮЗ 2 10 км 3/0
[Ci fib]
+6.7 +2.3 73 +5 +5 холодно 1023.1 1000.7
06 15.09 СЗ 4 10 км ясно +10.8 +4.6 66 +9 +11 по сезону 1023.6 1001.5 +5.3
09 15.09 СЗ 4 10 км 8/3 600 м
[Cu hum Ci fib]
+17.0 +4.0 42 +17 +20 тепло 1022.4 1000.8
12 15.09 З 5 10 км 8/5 600 м
[Cu hum Ci fib]
+19.7 +0.8 28 +20 +21 тепло 1020.6 999.2
15 15.09 З 5 10 км 8/0
[Ci fib]
+17.9 +2.4 35 +18 +18 тепло 1018.8 997.3
18 15.09 ЮЗ 3 10 км 4/0
[Ci fib]
+14.3 +2.3 44 +14 +14 по сезону 1017.8 996.1 +20.2
21 15.09 Ю 3 10 км 4/0
[Ci fib]
+11.5 +3.1 56 +10 +10 по сезону 1016.1 994.2
00 16.09 Ю 5 10 км 6/0
[Ci fib]
+11.6 +3.2 56 +9 +9 по сезону 1014.2 992.3
03 16.09 ЮЗ 5 10 км 8/0
[Ci fib]
+12.1 +3.9 57 +10 +10 по сезону 1011.2 989.5
06 16.09 З 5 10 км 3/0
[Ci fib]
+14.8 +3.4 46 +14 +15 тепло 1010.2 988.7 +10.7
09 16.09 З 4 10 км 8/0
[Ac trans Ci fib]
+19.9 +6.4 41 +21 +25 комфорт 1008.7 987.6
12 16.09 З 7 10 км 8/0
[Ac trans Ci fib]
+21.6 +7.6 40 +23 +24 комфорт 1007.6 986.6
15 16.09 З 5 10 км 6/0
[Ac trans Ci fib]
+19.8 +6.6 42 +20 +20 тепло 1006.9 985.8
18 16.09 З 2 10 км 4/0
[Ci fib]
+14.7 +5.8 55 +15 +15 тепло 1007.6 986.1 +22.1
21 16.09 З 2 10 км 4/0
[Ci fib]
+13.0 +6.1 63 +12 +12 по сезону 1007.2 985.6
00 17.09 З 2 10 км 8/0
[Ac trans Ci fib]
+12.2 +6.3 67 +11 +11 по сезону 1006.7 985.1
03 17.09 З 2 10 км 6/0
[Ac trans Ci fib]
+9.2 +4.7 73 +8 +8 по сезону 1007.2 985.3
06 17.09 З 4 10 км 6/0
[Ac trans Ci fib]
+11.2 +5.1 66 +9 +10 по сезону 1007.3 985.6 +8.9
09 17.09 З 5 10 км 8/8 1000 м
[Sc]
+17.1 +2.1 36 +16 +17 тепло 1006.2 984.9
12 17.09 З 6 10 км 6/6 1000 м
[Sc]
+18.2 +2.0 34 +18 +19 по сезону 1005.4 984.2
15 17.09 СЗ 5 10 км 4/0
[Ac trans]
+16.6 +2.0 37 +16 +16 по сезону 1005.3 984.0
18 17.09 З 2 10 км ясно +11.3 +1.7 52 +10 +10 по сезону 1006.3 984.6 +18.8
21 17.09 ЮЗ 2 10 км 3/0
[Ci fib]
+7.6 +0.6 61 +6 +6 прохладно 1006.0 984.0
00 18.09 Ю 3 10 км 6/0
[Ac trans]
+8.2 +3.1 70 +6 +6 прохладно 1003.9 982.0
03 18.09 ЮЗ 5 10 км 10/0
[Ac und]
+10.2 +5.9 75 +7 +7 прохладно 1001.7 980.0
06 18.09 ЮЗ 5 10 км 8/3 1000 м
[Sc Ac trans]
+11.1 +3.7 60 +9 +9 по сезону 1001.0 979.4 +7.1
09 18.09 З 6 10 км в посл. час ливневой дождь 8/5 600 м
[Cb calv Ac trans]
+10.1 +8.3 89 +7 +8 холодно 1001.2 979.5
12 18.09 З 9
{18}
10 км {ливн. осадки} 8/4 600 м
[Cb calv Ci fib]
+12.1 +4.0 58 +9 +9 очень
холодно
1001.6 980.1
15 18.09 З 5 10 км 6/3 1000 м
[Cb calv Ci fib]
+8.5 +6.8 89 +5 +5 очень
холодно
1004.7 982.8
18 18.09 З 5 10 км 3/0
[Ac trans]
+7.7 +6.2 90 +4 +4 очень
холодно
1006.4 984.4 +14.5 2
21 18.09 З 4 10 км 3/0
[Ci fib]
+6.9 +5.8 93 +3 +3 холодно 1008.6 986.5
00 19.09 З 4 10 км слаб. ливневой дождь 8/5 600 м
[Cb calv Ac trans]
+7.8 +6.9 94 +4 +4 прохладно 1011.1 989.0
03 19.09 З 4 10 км {ливн. осадки} 10/8 800 м
[Sc Ac und]
+8.5 +7.0 90 +5 +5 прохладно 1012.7 990.7
06 19.09 З 4 10 км {ливн. осадки} 9/6 750 м
[Sc Ac trans]
+8.9 +5.4 79 +6 +6 прохладно 1015.0 992.9 +6.5 0.0
09 19.09 З 4 10 км 9/6 660 м
[Sc Ac trans]
+11.0 +5.6 69 +9 +10 прохладно 1015.9 994.0
12 19.09 З 5 10 км {ливн. осадки} 9/5 600 м
[Cb calv Ac trans]
+12.4 +5.1 61 +10 +11 холодно 1016.0 994.2
15 19.09 З 5 10 км 4/3 600 м
[Sc Ac trans]
+12.0 +4.5 60 +10 +10 прохладно 1016.1 994.2
18 19.09 З 2 10 км 3/0
[Ac trans]
+8.3 +4.9 79 +6 +6 холодно 1017.3 995.1 +13.6 0.0
21 19.09 З 2 10 км 4/0
[Ac trans]
+6.7 +4.6 86 +4 +4 холодно 1017.3 995.0
00 20.09 З 2 10 км 8/0
[Ac trans]
+6.5 +4.7 88 +4 +4 прохладно 1017.3 995.0
03 20.09 З 2 10 км 3/0
[Ac trans]
+3.9 +2.9 93 +1 +1 очень
холодно
1017.2 994.7
06 20.09 З 2 500 м туман ?/? +4.9 +4.9 100 +2 +2 очень
холодно
1017.5 995.1 +3.4
09 20.09 З 3 10 км {туман} 4/0
[Ac trans]
+13.5 +6.4 62 +12 +18 по сезону 1015.8 994.1
12 20.09 З 4 10 км {туман} 8/5 600 м
[Sc Ac trans]
+14.5 +2.7 45 +13 +15 прохладно 1014.3 992.7
15 20.09 С 2 10 км {ливн. осадки} 8/4 1000 м
[Cb calv Ac trans]
+10.8 +4.1 63 +10 +10 прохладно 1014.9 993.0

 

Местоположение метеостанции Сумы (Сумская область, Украина): широта 50.85 долгота 34.67 высота над уровнем моря 181 м.

В архиве по умолчанию представлена погода в Сумах за последнюю неделю. Архивные данные за месяц целиком и за предыдущие месяцы, начиная с января 2011 года, Вы можете получить, выбрав интересующий диапазон дат из раскрывающегося списка и нажав кнопку "Ввод!".


*Определитесь, кто Вы:
робот инопланетянин человек

Внимание! Время в таблицах - всемирное. Для получения местного времени необходимо прибавить поправку, которая равна 2 ч.

Смотрите также архив погоды в соседних городах и на ближайших метеорологических станциях:

Погода в Лебедине (Сумская область, Украина) (33 км)
Погода в Гадяче (Полтавская область, Украина) (72 км)
Погода в Готне (Белгородская область, Россия) (77 км)
Погода в Рыльск (Курская область, Россия) (80 км)
Погода в Ромнах (Сумская область, Украина) (86 км)
Погода в Боходухове (Харьковская область, Украина) (94 км)
Погода в Глухове (Сумская область, Украина) (106 км)
Погода в Золочеве (Львовская область, Украина) (109 км)
Погода в Конотопе (Сумская область, Украина) (111 км)
Погода в Курчатове (Курская область, Россия) (113 км)

Пояснения к столбцам:

Ветер - указаны скорость ветра в м/с - средняя за 10 мин, порывы в срок и между сроками (в фигурных скобках) и направление, откуда дует ветер: С - северный, СВ - северо-восточный, В - восточный, ЮВ - юго-восточный, Ю - южный, ЮЗ - юго-западный, З - западный, СЗ - северо-западный.
Видимость - горизонтальная дальность видимости в метрах или километрах. При видимости от 1 до 10 км при отсутствии осадков обычно наблюдается дымка, при ухудшении видимости до 1 км и менее - туман. В сухую погоду видимость может ухудшаться дымом, пылью или мглою.
Явления - указаны атмосферные явления, наблюдавшиеся в срок или в последний час перед сроком; фигурными скобками обозначены явления, наблюдавшиеся между сроками (за 1-3 часа до срока); квадратными скобками обозначены град или гололедные отложения с указанием их диаметра в мм.
Облачность - указаны через наклонную черту общая и нижняя облачность в баллах и высота нижней границы облаков в метрах; квадратными скобками обозначены формы облаков: Ci - перистые, Cs - перисто-слоистые, Cc - перисто-кучевые, Ac - высококучевые, As - высокослоистые, Sc - слоисто-кучевые, Ns - слоисто-дождевые, Cu - кучевые, Cb - кучево-дождевые. Подробнее классификацию облаков см. в Атласе облаков (PDF).
T - Температура воздуха - температура, измеренная на высоте 2 м над землей.
Td - Температура точки росы - температура, при понижении до которой содержащийся в воздухе водяной пар достигнет насыщения.
f - Относительная влажность воздуха - влажноcть воздуха, измеренная на высоте 2 м над землей.
Te - Эффективная температура - температура, которую ощущает одетый по сезону человек в тени. Характеристика душности погоды. При расчете учитывается влияние влажности воздуха и скорости ветра на теплоощущения человека.
Tes - Эффективная температура на солнце - температура, которую ощущает человек, с поправкой на солнечный нагрев. Характеристика знойности погоды. Зависит от высоты солнца над горизонтом, облачности и скорости ветра. Ночью, в пасмурную погоду, а также при ветре 12 м/с и более поправка равна нулю.
P - Атмосферное давление - приведенное к уровню моря атмосферное давление.
Po - Атмосферное давление - измеренное на уровне метеостанции атмосферное давление.
Tmin - Минимальная температура - минимум температуры воздуха на высоте 2 м над землей.
Tmax - Максимальная температура - максимум температуры воздуха на высоте 2 м над землей.
R - Количество осадков - Количество выпавших осадков за период времени, мм. При наведении курсора мыши на число - период времени, за который выпало указанное количество осадков.
R24 - Количество осадков - Количество выпавших осадков за 24 часа, мм.
S - Снежный покров - Высота снежного покрова, см. При наведении курсора мыши на число - состояние снежного покрова и степень покрытия местности в баллах.